Regional Weather Roundup
Issued by NWS Columbia, SC

Home | Current Version | Previous Version | Text Only | Print | Product List | Glossary On
Versions: 1 2 3 4 5 6 7 8 9 10 11 12 13 14 15 16 17 18 19 20 21 22 23 24 25 26 27 28 29 30 31 32 33 34 35 36 37 38 39 40 41 42 43 44 45 46 47 48 49 50
000
ASUS42 KCAE 260510
RWRCAE
REGIONAL WEATHER ROUNDUP
NATIONAL WEATHER SERVICE COLUMBIA SC
100 AM EDT FRI MAY 26 2017

NOTE: "FAIR" INDICATES FEW OR NO CLOUDS BELOW 12,000 FEET WITH NO
SIGNIFICANT WEATHER AND/OR OBSTRUCTIONS TO VISIBILITY.

NOT ALL STATIONS ARE QUALITY CONTROLLED BY THE NATIONAL
WEATHER SERVICE. USE DATA WITH CAUTION...ESPECIALLY
DEWPOINT OBSERVATIONS.

SCZ001>056-GAZ040-063>065-077-260600-
...UPSTATE SOUTH CAROLINA...

CITY           SKY/WX    TMP DP  RH WIND       PRES   REMARKS
ANDERSON       CLEAR     60  52  74 SW6       29.90R
SPARTANBURG    CLEAR     59  50  72 SW7       29.86R
CLEMSON        CLEAR     61  51  70 W9        29.90R
GREENVILLE     CLEAR     62  51  67 W6        29.88R
GREENWOOD      CLEAR     59  50  72 W6        29.91R
GREER          CLEAR     60  51  72 SW7       29.86R
ROCK HILL      CLEAR     61  52  72 SW7       29.84R
CHESTER        CLEAR     61  50  67 SW5       29.86R
LAURENS        CLEAR     61  52  72 W6        29.88R


...CENTRAL SOUTH CAROLINA...

CITY           SKY/WX    TMP DP  RH WIND       PRES   REMARKS
COLUMBIA APT   CLEAR     60  53  77 SW7       29.87R
COLUMBIA OWENS CLEAR     64  52  64 W5        29.89R
MCENTIRE ANGB  CLEAR     62  52  70 SW5       29.88R
ORANGEBURG     CLEAR     60  54  80 SW8       29.90R
SUMTER SHAW    CLEAR     62  53  70 SW9       29.85R
NEWBERRY       CLEAR     61  52  72 SW7       29.91R
AIKEN          FAIR      55  52  88 SW3       29.94R
BARNWELL       FAIR      61  55  82 CALM      29.92R
MANNING        FAIR      64  55  72 SW18G24   29.89R
CAMDEN         FAIR      64  52  63 CALM      29.86R
LANCASTER      CLEAR     59  54  82 SW7       29.85R
WINNSBORO      CLEAR     61  52  72 SW7       29.87R


...EASTERN AND COASTAL SOUTH CAROLINA...

CITY           SKY/WX    TMP DP  RH WIND       PRES   REMARKS
MYRTLE BEACH   CLEAR     66  54  65 SW8       29.88R
N MYRTLE BCH   CLEAR     68  54  60 W14       29.85S
CONWAY         FAIR      61  55  82 SW6       29.87R
MARION         FAIR      63  52  67 SW7       29.86R
HARTSVILLE     FAIR      59  52  77 SW5       29.85R
FLORENCE       CLEAR     64  54  69 W8        29.85R
DARLINGTON     CLEAR     63  55  75 SW8       29.85R
CHARLESTON APT CLEAR     65  53  65 SW9       29.91R
MOUNT PLEASANT FAIR      66  57  72 SW5       29.91S
WALTERBORO     CLEAR     61  54  77 SW6       29.92S
BEAUFORT       CLEAR     65  56  72 SW6       29.93R


...EASTERN GEORGIA...

CITY           SKY/WX    TMP DP  RH WIND       PRES   REMARKS
AUGUSTA BUSH F CLEAR     64  54  69 SW8       29.91R
AUGUSTA DANIEL CLEAR     65  51  60 VRB3      29.92R
THOMSON        CLEAR     56  53  91 W6        29.97R
WASHINGTON     FAIR      61  54  77 W6        29.92R
CLAXTON        FAIR     N/A N/A N/A CALM      29.95R
SYLVANIA       CLEAR     61  59  94 CALM      29.94R
STATESBORO     CLEAR     64  56  73 W5        29.94R
SAVANNAH       CLEAR     63  53  70 SW3       29.94R


...SOUTHERN NORTH CAROLINA...

CITY           SKY/WX    TMP DP  RH WIND       PRES   REMARKS
CHARLOTTE      CLEAR     61  51  70 SW9       29.83R
MONROE         LGT RAIN  60  51  72 SW10      29.82R
WADESBORO      CLEAR     62  51  67 SW7       29.81R
ROCKINGHAM     CLEAR     62  54  74 SW9       29.82R
RUTHERFORDTON  PTCLDY    63  49  61 W7        29.85R
ASHEVILLE      CLEAR     58  46  64 NW6       29.88R

$$



USA.gov is the U.S. government's official web portal to all federal, state and local government web resources and services.